Regional Weather Roundup
Issued by NWS Boston, MA

Home | Current Version | Previous Version | Text Only | Print | Product List | Glossary On
Versions: 1 2 3 4 5 6 7 8 9 10 11 12 13 14 15 16 17 18 19 20 21 22 23 24 25 26 27 28 29 30 31 32 33 34 35 36 37 38 39 40 41 42 43 44 45 46 47 48 49 50
000
ASUS41 KBOX 161510
RWRBOX

REGIONAL WEATHER ROUNDUP
NATIONAL WEATHER SERVICE TAUNTON MA
1100 AM EDT TUE SEP 16 2014

NOTE:  "FAIR" INDICATES FEW OR NO CLOUDS BELOW 12,000 FEET WITH NO
SIGNIFICANT WEATHER AND/OR OBSTRUCTIONS TO VISIBILITY.  THE FOLLOWING
OBSERVATION LOCATIONS DO NOT REPORT PRESENT WEATHER...PROVINCETOWN...
SMITHFIELD...BLOCK ISLAND...KEENE...AND OXFORD.

MAZALL-161600-
EASTERN MASSACHUSETTS

CITY           SKY/WX    TMP DP  RH WIND       PRES   REMARKS
BOSTON         CLOUDY    62  50  64 CALM      30.01F
BEVERLY        LGT RAIN  60  54  80 W3        30.01S
LAWRENCE       LGT RAIN  56  53  90 NW3       30.05R
BEDFORD        CLOUDY    56  54  93 NW5       30.01S
BLUE HILL        N/A     62  51  67 SW5       30.01F
NORWOOD        CLOUDY    64  50  60 S6        30.01F
MARSHFIELD     NOT AVBL
PLYMOUTH       MOSUNNY   66  49  54 W8        30.01S
TAUNTON        PTSUNNY   69  51  52 NW5       30.00F
NEW BEDFORD    MOSUNNY   68  53  58 SE6       30.00S
$$

MAZALL-161600-
CAPE COD AND THE ISLANDS

CITY           SKY/WX    TMP DP  RH WIND       PRES   REMARKS
FALMOUTH       MOSUNNY   66  50  55 VRB6      30.01S
HYANNIS        MOSUNNY   66  54  65 S7        30.01F
CHATHAM        MOSUNNY   66  51  58 VRB6      30.02F
PROVINCETOWN   PTSUNNY   66  55  68 SW12      30.02R
NANTUCKET      PTSUNNY   63  52  67 SE8       30.02S
MARTHAS VNYRD  MOSUNNY   66  53  63 S5        30.01F
$$

MAZALL-161600-
CENTRAL AND WESTERN MASSACHUSETTS

CITY           SKY/WX    TMP DP  RH WIND       PRES   REMARKS
WORCESTER      LGT RAIN  55  51  86 W7        30.03S
FITCHBURG      CLOUDY    55  51  86 NE3       30.03F
ORANGE         LGT RAIN  53  50  89 CALM      30.02F
SPRINGFIELD    CLOUDY    54  51  91 VRB1      30.01F
WESTFIELD      CLOUDY    55  51  86 CALM      30.01F
NORTH ADAMS    PTSUNNY   57  52  83 CALM      30.02S
PITTSFIELD     CLOUDY    55  53  93 CALM      30.01F
$$

RIZALL-161600-
RHODE ISLAND

CITY           SKY/WX    TMP DP  RH WIND       PRES   REMARKS
PROVIDENCE     PTSUNNY   66  52  60 S7        30.02F
NEWPORT        MOSUNNY   67  50  54 SE3       30.01F
BLOCK ISLAND   MOSUNNY   66  48  52 S5        30.02S
SMITHFIELD     CLOUDY    63  48  59 CALM      30.02F
WESTERLY       CLOUDY    66  51  58 S3        30.02F
$$

CTZALL-161600-
CONNECTICUT

CITY           SKY/WX    TMP DP  RH WIND       PRES   REMARKS
BRADLEY INTL   LGT RAIN  56  53  90 SE6       30.01F
HARTFORD       CLOUDY    56  53  90 SE10      30.01F
BRIDGEPORT     CLOUDY    60  57  89 NW6       30.02F
DANBURY        CLOUDY    57  55  93 SE3       30.03F
GROTON         CLOUDY    65  54  67 CALM      30.00F
NEW HAVEN      CLOUDY    60  55  83 N9        30.02F
CHESTER        DRIZZLE   57  55  94 NW5       30.04S
MERIDEN        CLOUDY    57  53  86 CALM      30.03F
WILLIMANTIC    RAIN      56  53  90 CALM      30.04S FOG
OXFORD         CLOUDY    55  52  88 VRB5      30.03F
$$

MEZ002-015-021-024-NHZ003-005-008-011-012-014-VTZ005-008-161600-
NORTHERN NEW ENGLAND

CITY           SKY/WX    TMP DP  RH WIND       PRES   REMARKS
PORTLAND ME    LGT RAIN  57  52  83 CALM      30.03S
BANGOR ME      CLOUDY    59  48  67 S12       30.01F
CONCORD NH     LGT RAIN  53  51  93 VRB5      30.03F
MANCHESTER NH  LGT RAIN  54  49  83 CALM      30.02S FOG
NASHUA NH      LGT RAIN  53  52  97 CALM      30.04S FOG
PORTSMOUTH NH  CLOUDY    60  52  75 VRB2      30.01F
JAFFREY NH     CLOUDY    51  49  92 CALM      30.02F
KEENE NH       CLOUDY    54  45  71 CALM      30.03S
BURLINGTON VT  PTSUNNY   57  51  80 S7        29.99F
MT. WASHINGTON DRZL/FOG  34  34 100 W33         N/A  VSB 0   WCI  19
$$

NYZ052-076-161600-
EASTERN NEW YORK

CITY           SKY/WX    TMP DP  RH WIND       PRES   REMARKS
ALBANY         CLOUDY    58  53  84 S6        30.03S
NEW YORK CITY  CLOUDY    59  56  89 NE8       30.02S
$$

ANZALL-161600-
MARINE OBSERVATIONS

STATION/POSITION TIME  TEMP    WIND        PRES    VSBY  WAVE
                       AIR SEA DIR/SP/G                  HT/PER
                 (UTC) (F)     (DEG/KT/KT) (MB)    (MI)  (FT/S)
BOSTON BUOY      1450   59 61  220/  2/  2 1016.7R         2/ 9
BUZZARDS BAY     1400          120/ 10/ 11 1016.8F
NANTUCKET SOUND  1450   63 68  110/  8/ 10 1016.3F         1/ 6
MASS BAY-STELLWA 1404   60 60  230/  6/  6   N/A    1 7/8  1/ 4
ISLE OF SHOALS   1500   58      50/  4/  4 1015.8F
S OF BLOCK IS    1408      66                N/A           2/ 8
$$

......................KEY.........................
  SKY/WX - SKY CONDITION/PRESENT WEATHER
  TMP    - TEMPERATURE IN FAHRENHEIT
  DWPT   - DEWPOINT IN FAHRENHEIT
  RH     - RELATIVE HUMIDITY IN PERCENT
  WIND   - DIRECTION AND SPEED IN MPH
  PRES   - MEAN SEA LEVEL PRESSURE IN INCHES OF HG
  WCI    - WIND CHILL INDEX
  VSB    - VISIBILITY IN MILES
  HX     - HEAT INDEX
  TC     - TEMPERATURE IN CELSIUS
  VRB    - VARIABLE WIND DIRECTION
  N/A    - NOT AVAILABLE



USA.gov is the U.S. government's official web portal to all federal, state and local government web resources and services.